Weather History for Columbia, MO

Change the Weather History Date:

Sunday, October 16, 2011

  Actual Average Record
Temperature  
Mean Temperature 64 °F 56 °F  
Max Temperature 79 °F 67 °F 86 °F (1950)
Min Temperature 48 °F 45 °F 30 °F (1976)
Degree Days  
Heating Degree Days 1 9  
Month to date heating degree days 46 121  
Since 1 July heating degree days 156 189  
Cooling Degree Days 0 0  
Month to date cooling degree days 28 15  
Year to date cooling degree days 1502 1242  
Growing Degree Days 15 (Base 50)    
Moisture  
Dew Point 44 °F    
Average Humidity 53    
Maximum Humidity 66    
Minimum Humidity 39    
Precipitation  
Precipitation 0.00 in 0.10 in 1.49 in (1905)
Month to date precipitation 0.61 1.81  
Year to date precipitation 31.32 35.43  
Snow  
Snow 0.00 in 0.00 in 0.00 in (2012)
Month to date snowfall 0.0 0.0  
Since 1 July snowfall 0.0 0.0  
Since 1 September snowfall 0.0 0.0  
Snow Depth 0.00 in    
Sea Level Pressure  
Sea Level Pressure 29.91 in    
Wind  
Wind Speed 10 mph (WNW)    
Max Wind Speed 24 mph    
Max Gust Speed 31 mph    
Visibility 10 miles    
Events      
T = Trace of Precipitation, MM = Missing Value Source: NWS Daily Summary

Daily Weather History Graph

Daily Weather History Graph

Search for Another Location

Airport:

Trip Planner

Search our weather history database for the weather conditions in past years. The results will help you decide how hot, cold, wet, or windy it might be!

Date:

Astronomy

Oct. 16, 2011 Rise Set
Actual Time 7:18 AM CDT 6:29 PM CDT
Civil Twilight 6:52 AM CDT 6:56 PM CDT
Nautical Twilight 6:21 AM CDT 7:27 PM CDT
Astronomical Twilight 5:50 AM CDT 7:57 PM CDT
Moon 9:18 PM CDT (10/16) 11:33 AM CDT (10/16)
Length of Visible Light 12h 04m
Length of Day
11h 10m
Waning Gibbous, 82% of the Moon is Illuminated
Oct 16
Waning Gibbous
Oct 19
Last Quarter
Oct 26
New
Nov 2
First Quarter
Nov 10
Full

Hourly Weather History & Observations

Time (CDT) Temp. Dew Point Humidity Pressure Visibility Wind Dir Wind Speed Gust Speed Precip Events Conditions
12:54 AM 55.9 °F 43.0 °F 62% 29.89 in 10.0 mi South 4.6 mph - N/A   Clear
1:54 AM 55.0 °F 44.1 °F 67% 29.88 in 10.0 mi South 6.9 mph - N/A   Clear
2:54 AM 55.9 °F 44.1 °F 64% 29.86 in 10.0 mi South 9.2 mph - N/A   Clear
3:54 AM 57.0 °F 44.1 °F 62% 29.85 in 10.0 mi SSW 8.1 mph - N/A   Clear
4:54 AM 57.0 °F 45.0 °F 64% 29.84 in 10.0 mi SSW 10.4 mph - N/A   Clear
5:54 AM 57.0 °F 45.0 °F 64% 29.86 in 10.0 mi Calm Calm - N/A   Clear
6:54 AM 55.0 °F 45.0 °F 69% 29.85 in 10.0 mi South 5.8 mph - N/A   Clear
7:54 AM 62.6 °F 46.4 °F 55% 29.86 in 10.0 mi SW 12.7 mph - N/A   Clear
8:54 AM 66.9 °F 46.9 °F 49% 29.87 in 10.0 mi WSW 10.4 mph - N/A   Clear
9:54 AM 71.1 °F 48.9 °F 45% 29.88 in 10.0 mi WSW 15.0 mph - N/A   Clear
10:54 AM 75.0 °F 50.0 °F 41% 29.87 in 10.0 mi West 13.8 mph 25.3 mph N/A   Clear
11:54 AM 75.9 °F 51.1 °F 42% 29.88 in 10.0 mi WNW 17.3 mph 23.0 mph N/A   Clear
12:54 PM 78.1 °F 52.0 °F 40% 29.88 in 10.0 mi NW 13.8 mph 21.9 mph N/A   Clear
1:54 PM 78.1 °F 53.1 °F 42% 29.88 in 10.0 mi WNW 18.4 mph - N/A   Partly Cloudy
2:54 PM 73.9 °F 50.0 °F 43% 29.89 in 10.0 mi North 18.4 mph - N/A   Clear
3:54 PM 70.0 °F 44.1 °F 39% 29.92 in 10.0 mi North 17.3 mph - N/A   Clear
4:54 PM 66.9 °F 43.0 °F 42% 29.93 in 10.0 mi North 16.1 mph - N/A   Clear
5:54 PM 63.0 °F 42.1 °F 46% 29.94 in 10.0 mi North 11.5 mph - N/A   Clear
6:54 PM 57.2 °F 42.8 °F 59% 29.96 in 10.0 mi North 8.1 mph - N/A   Clear
7:54 PM 54.0 °F 41.0 °F 62% 29.97 in 10.0 mi North 8.1 mph - N/A   Clear
8:54 PM 52.0 °F 39.9 °F 63% 29.99 in 10.0 mi North 6.9 mph - N/A   Clear
9:54 PM 52.0 °F 37.0 °F 57% 29.99 in 10.0 mi North 5.8 mph - N/A   Clear
10:54 PM 52.0 °F 35.1 °F 53% 30.00 in 10.0 mi North 3.5 mph - N/A   Clear
11:54 PM 52.0 °F 34.0 °F 50% 30.02 in 10.0 mi Calm Calm - N/A   Clear